AD8BW Weather Reports


time (UTC)temp
F
wind
direction
speed
knots
gust
knots
rain 1hr
in
rain 24hr
in
rain mn
in
humidity
%
barometer
mb
20260508163839 57 238 3.5 6.1 0.00 0.00 0.00 37 1009.9
20260508162838 57 350 1.7 7.8 0.00 0.00 0.00 34 1010.1
20260508161835 56 317 1.7 4.3 0.00 0.00 0.00 35 1010.1
20260508160838 56 283 3.5 9.6 0.00 0.00 0.00 35 1010.2
20260508155837 56 169 1.7 9.6 0.00 0.00 0.00 35 1010.3
20260508154835 55 154 1.7 13.9 0.00 0.00 0.00 36 1010.3
20260508153836 55 264 1.7 9.6 0.00 0.00 0.00 39 1010.3
20260508152842 54 156 1.7 6.1 0.00 0.00 0.00 39 1010.3
20260508151833 54 271 1.7 7.8 0.00 0.00 0.00 41 1010.4
20260508150831 54 237 1.7 6.1 0.00 0.00 0.00 40 1010.6
20260508145831 53 170 1.7 6.1 0.00 0.00 0.00 43 1010.5
20260508144830 53 189 1.7 4.3 0.00 0.00 0.00 44 1010.5
20260508143829 52 238 1.7 3.5 0.00 0.00 0.00 46 1010.7
20260508142830 52 240 0.0 6.1 0.00 0.00 0.00 48 1010.7
20260508141830 51 325 1.7 4.3 0.00 0.00 0.00 49 1010.7
20260508140828 51 308 1.7 9.6 0.00 0.00 0.00 53 1010.9
20260508135832 51 170 0.0 3.5 0.00 0.00 0.00 54 1011.0
20260508134828 50 327 0.0 3.5 0.00 0.00 0.00 54 1011.0
20260508133828 50 281 0.0 3.5 0.00 0.00 0.00 57 1011.1
20260508132827 49 335 0.0 4.3 0.00 0.00 0.00 58 1011.0
20260508131825 49 225 0.0 3.5 0.00 0.00 0.00 64 1011.0
20260508130826 48 211 0.0 4.3 0.00 0.00 0.00 66 1011.1
20260508125826 48 305 0.0 3.5 0.00 0.00 0.00 67 1011.0
20260508124829 47 196 0.0 3.5 0.00 0.00 0.00 69 1011.1
20260508123826 46 192 1.7 4.3 0.00 0.00 0.00 76 1011.0
20260508122827 45 164 0.0 4.3 0.00 0.00 0.00 78 1010.8
20260508121828 44 349 0.0 1.7 0.00 0.00 0.00 81 1010.8
20260508120824 43 349 0.0 0.0 0.00 0.00 0.00 87 1010.6
20260508115826 41 349 0.0 0.0 0.00 0.00 0.00 89 1010.5
20260508114827 39 349 0.0 0.0 0.00 0.00 0.00 90 1010.5
20260508113830 37 349 0.0 0.0 0.00 0.00 0.00 88 1010.4
20260508112823 37 349 0.0 0.0 0.00 0.00 0.00 87 1010.3
20260508111824 37 349 0.0 0.0 0.00 0.00 0.00 86 1010.3
20260508110824 37 349 0.0 0.0 0.00 0.00 0.00 86 1010.3
20260508105824 37 349 0.0 0.0 0.00 0.00 0.00 85 1010.2
20260508104826 37 349 0.0 0.0 0.00 0.00 0.00 85 1010.2
20260508103821 37 349 0.0 0.0 0.00 0.00 0.00 85 1010.1
20260508102818 37 349 0.0 0.0 0.00 0.00 0.00 84 1010.2
20260508101820 37 349 0.0 0.0 0.00 0.00 0.00 84 1010.2
20260508100820 38 349 0.0 0.0 0.00 0.00 0.00 84 1010.3
20260508095818 38 349 0.0 0.0 0.00 0.00 0.00 84 1010.3
20260508094817 38 349 0.0 0.0 0.00 0.00 0.00 83 1010.3
20260508093818 39 349 0.0 0.0 0.00 0.00 0.00 83 1010.3
20260508092814 39 349 0.0 0.0 0.00 0.00 0.00 83 1010.4
20260508091813 39 349 0.0 0.0 0.00 0.00 0.00 83 1010.4
20260508090818 40 349 0.0 0.0 0.00 0.00 0.00 82 1010.4
20260508085816 40 349 0.0 0.0 0.00 0.00 0.00 82 1010.5
20260508084815 40 349 0.0 0.0 0.00 0.00 0.00 81 1010.5
20260508083814 40 349 0.0 0.0 0.00 0.00 0.00 81 1010.5
20260508082816 41 349 0.0 0.0 0.00 0.00 0.00 81 1010.4
20260508081828 41 349 0.0 0.0 0.00 0.00 0.00 81 1010.4
20260508080826 41 349 0.0 0.0 0.00 0.00 0.00 80 1010.4
20260508075807 42 349 0.0 1.7 0.00 0.00 0.00 80 1010.4
20260508074808 42 349 0.0 1.7 0.00 0.00 0.00 80 1010.5
20260508073808 42 349 0.0 1.7 0.00 0.00 0.00 79 1010.3
20260508072811 42 349 0.0 0.0 0.00 0.00 0.00 79 1010.2
20260508071809 42 349 0.0 0.0 0.00 0.00 0.00 78 1010.2
20260508070808 42 349 0.0 3.5 0.00 0.00 0.00 78 1010.3
20260508065808 42 349 0.0 1.7 0.00 0.00 0.00 78 1010.4
20260508064809 43 349 0.0 3.5 0.00 0.00 0.00 78 1010.4
20260508063804 43 329 0.0 3.5 0.00 0.00 0.00 77 1010.8
20260508062804 43 329 0.0 0.0 0.00 0.00 0.00 75 1010.6
20260508061801 43 329 0.0 0.0 0.00 0.00 0.00 74 1010.8
20260508060803 44 329 0.0 1.7 0.00 0.00 0.00 74 1010.9
20260508055804 44 329 1.7 6.1 0.00 0.00 0.00 73 1011.0
20260508054804 44 152 3.5 6.1 0.00 0.00 0.00 68 1010.3
20260508053804 44 307 0.0 3.5 0.00 0.00 0.00 67 1011.1
20260508052802 44 304 0.0 0.0 0.00 0.00 0.00 67 1010.8
20260508051805 44 304 0.0 1.7 0.00 0.00 0.00 67 1010.8
20260508050759 44 304 0.0 3.5 0.00 0.00 0.00 69 1011.2
20260508045804 44 300 0.0 1.7 0.00 0.00 0.00 69 1011.0
20260508044801 44 296 0.0 0.0 0.00 0.00 0.00 73 1010.9
20260508043801 43 296 0.0 3.5 0.00 0.00 0.00 74 1011.1
20260508042802 43 313 0.0 3.5 0.00 0.00 0.00 76 1011.2
20260508041757 43 328 0.0 0.0 0.00 0.00 0.00 76 1011.0
20260508040800 43 328 0.0 0.0 0.00 0.00 0.00 75 1010.7
20260508035800 44 328 0.0 0.0 0.00 0.00 0.00 74 1010.7
20260508034756 44 328 0.0 0.0 0.00 0.00 0.00 72 1010.7
20260508033754 44 328 0.0 0.0 0.00 0.00 0.00 71 1010.7
20260508032756 44 328 0.0 0.0 0.00 0.00 0.00 69 1010.4
20260508031757 44 328 0.0 0.0 0.00 0.00 0.00 66 1010.6
20260508030757 44 328 0.0 0.0 0.00 0.00 0.00 67 1010.7
20260508025758 44 328 0.0 0.0 0.00 0.00 0.00 67 1011.0
20260508024803 44 328 0.0 0.0 0.00 0.00 0.00 67 1011.0
20260508023803 45 328 0.0 0.0 0.00 0.00 0.00 65 1011.0
20260508022749 45 328 0.0 0.0 0.00 0.00 0.00 64 1010.8
20260508021748 45 328 0.0 1.7 0.00 0.00 0.00 62 1010.9
20260508020752 45 328 0.0 0.0 0.00 0.00 0.00 62 1010.8
20260508015750 46 328 0.0 0.0 0.00 0.00 0.00 60 1010.7
20260508014750 47 328 0.0 3.5 0.00 0.00 0.00 57 1010.8
20260508013753 48 313 0.0 4.3 0.00 0.00 0.00 56 1010.7
20260508012748 48 284 0.0 3.5 0.00 0.00 0.00 54 1010.6
20260508011751 49 296 1.7 3.5 0.00 0.00 0.00 52 1010.4
20260508010746 49 308 1.7 4.3 0.00 0.00 0.00 50 1010.3
20260508005744 49 276 1.7 4.3 0.00 0.00 0.00 50 1010.3
20260508004746 50 251 0.0 4.3 0.00 0.00 0.00 49 1010.0
20260508003744 50 290 1.7 4.3 0.00 0.00 0.00 48 1010.0
20260508002742 51 283 1.7 6.1 0.00 0.00 0.00 47 1010.1
20260508001743 51 276 0.0 4.3 0.00 0.00 0.00 47 1010.1
20260508000742 51 290 1.7 4.3 0.00 0.00 0.00 46 1010.0
20260507235742 51 335 1.7 4.3 0.00 0.00 0.00 47 1009.9
20260507234741 51 320 1.7 6.1 0.00 0.00 0.00 46 1009.8
20260507233744 51 327 1.7 6.1 0.00 0.00 0.00 46 1009.9
20260507232747 51 349 3.5 9.6 0.00 0.00 0.00 45 1009.9
20260507231740 52 243 3.5 12.2 0.00 0.00 0.00 45 1009.9
20260507230740 53 350 3.5 9.6 0.00 0.00 0.00 44 1009.9
20260507225748 52 266 1.7 6.1 0.00 0.00 0.00 45 1009.9
20260507224738 52 355 1.7 6.1 0.00 0.00 0.00 45 1009.9
20260507223741 52 246 1.7 7.8 0.00 0.00 0.00 45 1009.9
20260507222739 52 215 3.5 7.8 0.00 0.00 0.00 45 1010.0
20260507221737 52 252 3.5 10.4 0.00 0.00 0.00 44 1010.2
20260507220735 53 272 3.5 7.8 0.00 0.00 0.00 42 1010.1
20260507215736 52 181 3.5 9.6 0.00 0.00 0.00 44 1010.0
20260507214731 53 316 3.5 13.9 0.00 0.00 0.00 44 1009.9
20260507213733 52 253 3.5 9.6 0.00 0.00 0.00 44 1010.0
20260507212731 52 111 1.7 10.4 0.00 0.00 0.00 44 1010.0
20260507211733 53 294 3.5 9.6 0.00 0.00 0.00 45 1010.0
20260507210732 53 239 1.7 9.6 0.00 0.00 0.00 43 1010.0
20260507205733 53 192 3.5 10.4 0.00 0.00 0.00 43 1010.0
20260507204726 53 69 4.3 12.2 0.00 0.00 0.00 43 1010.1
20260507203724 53 265 3.5 13.9 0.00 0.00 0.00 42 1009.9
20260507202725 52 254 3.5 12.2 0.00 0.00 0.00 43 1010.2
20260507201726 52 325 4.3 13.9 0.00 0.00 0.00 43 1010.4
20260507200727 51 319 3.5 10.4 0.00 0.00 0.00 44 1010.4
20260507195725 51 13 3.5 12.2 0.00 0.00 0.00 44 1010.5
20260507194726 51 252 4.3 13.9 0.00 0.00 0.00 43 1010.6
20260507193724 51 5 3.5 13.9 0.00 0.00 0.00 44 1010.6
20260507192741 54 281 3.5 7.8 0.00 0.00 0.00 41 1010.5
20260507191727 53 283 3.5 13.9 0.00 0.00 0.00 46 1010.6
20260507190721 52 213 1.7 9.6 0.00 0.00 0.00 44 1010.5
20260507185718 51 254 3.5 17.4 0.00 0.00 0.00 47 1010.7
20260507184721 51 323 3.5 13.9 0.00 0.00 0.00 47 1010.6
20260507183719 52 324 3.5 7.8 0.00 0.00 0.00 46 1010.6
20260507182717 52 240 4.3 13.9 0.00 0.00 0.00 47 1010.7
20260507181720 51 286 3.5 12.2 0.00 0.00 0.00 47 1010.8
20260507180721 51 229 3.5 12.2 0.00 0.00 0.00 45 1010.7
20260507175719 51 256 3.5 10.4 0.00 0.00 0.00 49 1010.8
20260507174713 51 326 3.5 12.2 0.00 0.00 0.00 48 1010.9
20260507173714 51 333 3.5 12.2 0.00 0.00 0.00 49 1010.9
20260507172715 51 305 3.5 9.6 0.00 0.00 0.00 48 1011.1
20260507171714 51 288 3.5 10.4 0.00 0.00 0.00 50 1011.1
20260507170714 51 329 3.5 13.9 0.00 0.00 0.00 50 1011.2
20260507165714 50 307 3.5 9.6 0.00 0.00 0.00 49 1011.3
20260507164712 52 331 3.5 13.9 0.00 0.00 0.00 47 1011.2